Regional Weather Roundup
Issued by NWS

Home | Current Version | Previous Version | Graphics & Text | Print | Product List | Glossary On
Versions: 1 2 3 4 5 6 7 8 9 10 11 12 13 14 15 16 17 18 19 20 21 22 23 24 25 26 27 28 29 30 31 32 33 34 35 36 37 38 39 40 41 42 43 44 45 46 47 48 49 50
868
ASUS45 KBOU 280307
RWRCO

WEATHER ROUNDUP FOR COLORADO
NATIONAL WEATHER SERVICE DENVER/BOULDER CO
900 PM MDT THU APR 27 2017

NOTE: "FAIR" INDICATES FEW OR NO CLOUDS BELOW 12000 FEET WITH NO
SIGNIFICANT WEATHER AND/OR OBSTRUCTIONS TO VISIBILITY.

COZ001>005-013-030-031-280400-
...NORTHWEST COLORADO...

CITY           SKY/WX    TMP DP  RH WIND       PRES   REMARKS
CRAIG          MOCLDY    36  27  69 SW10      29.75R
HAYDEN         MOCLDY    34  23  64 W13G22    29.74R WCI  25
MEEKER         CLOUDY    35  29  78 CALM      29.78R
MOUNT WERNER   NOT AVBL
STEAMBOAT SPGS CLOUDY    32  26  77 CALM      29.73R
WALDEN           N/A     30  25  80 W7        29.72R WCI  23
$$

COZ006>008-011-280400-
...WEST CENTRAL VALLEYS...

CITY           SKY/WX    TMP DP  RH WIND       PRES   REMARKS
GRAND JUNCTION CLOUDY    49  18  29 SE6       29.73R
MONTROSE       CLOUDY    46  16  30 NW13      29.76R
EAGLE          CLOUDY    39  25  57 SW12      29.76R
RIFLE          CLOUDY    42  29  59 W12       29.76R
DELTA          FAIR      50  18  28 W23G30    29.73R
NUCLA          FAIR      45   3  18 NW8       29.80R
$$

COZ017>023-064>068-280400-
...SOUTHWEST COLORADO...

CITY           SKY/WX    TMP DP  RH WIND       PRES   REMARKS
DURANGO        MOCLDY    43  13  29 N10       29.71R
CORTEZ         CLOUDY    47  14  26 N12G21    29.75R
PAGOSA SPRINGS FAIR      42   7  24 W7        29.75R
TELLURIDE      MOCLDY    33   9  35 NW13G23   29.83R WCI  24
WOLF CREEK PAS MOCLDY    19   3  49 W8        29.85R WCI   9
$$

COZ009-010-012-014-032>034-037-058>063-280400-
...CENTRAL COLORADO...

CITY           SKY/WX    TMP DP  RH WIND       PRES   REMARKS
ASPEN          LGT SNOW  29  28  96 CALM      29.76R VSB 1
BUENA VISTA    CLOUDY    32  22  68 NW22G29   29.72R WCI  19
COPPER MTN     CLOUDY    19  14  79 MISG      29.74R
BERTHOUD PASS  CLOUDY    10   0  61 MISG      29.69R
COTTONWOOD PAS FAIR      32  12  43 SW22G35   29.72R WCI  19
GUNNISON       FAIR      33  23  66 E7        29.74R WCI  27
KREMMLING      FAIR      37  23  56 W9        29.75R
LEADVILLE      CLOUDY    21  18  88 CALM      29.72R
MONARCH PASS   CLOUDY    18  14  86 W22G28    29.86R WCI   0
SALIDA         FAIR      39  18  41 NW12      29.78R
SUNLIGHT       CLOUDY    19  18  93 NW7G18    29.81R FOG     WCI  10
WILKERSON PASS MOCLDY    21  12  68 W10G20    29.74R WCI  10
$$

COZ069>075-280400-
...SAN LUIS VALLEY/SANGRE DE CRISTO MOUNTAINS...

CITY           SKY/WX    TMP DP  RH WIND       PRES   REMARKS
ALAMOSA        CLOUDY    42  12  29 NW12      29.70R
LA VETA PASS   MOCLDY    28  10  47 SW18G28   29.84R WCI  16
SAGUACHE       FAIR      36  18  48 NW20G25   29.74R
$$

COZ035-036-038>040-280400-
...NORTHERN COLORADO FRONT RANGE...

CITY           SKY/WX    TMP DP  RH WIND       PRES   REMARKS
DENVER INTL AP MOCLDY    39  33  79 S9        29.62R
DMNS CITY PARK   N/A     46  26  47 W7G13     29.63R
AURORA         MOCLDY    41  37  84 S7        29.64R
FRONT RANGE AP MOCLDY    41  36  81 E5        29.62
ERIE MUNI ARPT FAIR      44  36  73 S7        29.62R
BOULDER MUN AP FAIR      46  18  31 W17G24    29.61R
CENTENNIAL     MOCLDY    42  36  79 SE5       29.63R
BROOMFIELD     MOCLDY    45  25  45 W7        29.63R
FORT COLLINS   FAIR      46  32  58 VRB3      29.62R
LONGMONT       FAIR      45  37  72 SE5       29.63R HAZE
$$

COZ041-046-047-076>085-087-088-280400-
...PIKES PEAK/PALMER DIVIDE AND SOUTHERN FOOTHILLS...

CITY           SKY/WX    TMP DP  RH WIND       PRES   REMARKS
COLO. SPRINGS  FAIR      42  31  64 N5        29.64R
A. F. ACADEMY  FAIR      35  33  90 N9        29.63R WCI  28
SCHRIEVER AFB  FAIR      37  32  81 NW13      29.64R
ELLICOTT       FAIR     N/A N/A N/A N17       29.61R
FALCON         CLOUDY    37  34  89 N5        29.65R
FORT CARSON    MOCLDY    40  32  74 E5        29.62R
LIMON          FAIR      37  36  96 NW10      29.63R
MONUMENT HILL  FAIR      32  32 100 SW7       29.66R WCI  26
TRINIDAD       CLOUDY    48  35  60 N14       29.63R
$$

COZ042>045-048>051-090-091-280400-
...NORTHEAST COLORADO...

CITY           SKY/WX    TMP DP  RH WIND       PRES   REMARKS
GREELEY ARPT   FAIR      42  38  85 E8        29.63R
AKRON          FAIR      37  34  89 NE14G22   29.58R
BURLINGTON     NOT AVBL
WRAY           NOT AVBL
STERLING       FAIR      41  37  87 N8        29.58R
HOLYOKE        RAIN      43  41  93 E7        29.62R
FORT MORGAN    FAIR      38  37  93 SW3       29.64R
$$

COZ086-089-092>099-280400-
...SOUTHEAST COLORADO...

CITY           SKY/WX    TMP DP  RH WIND       PRES   REMARKS
PUEBLO         FAIR      48  35  60 N15       29.61R
LA JUNTA       FAIR      48  40  73 N14       29.59R
LAMAR          MOCLDY    49  42  77 N17G26    29.56R
SPRINGFIELD      N/A     46  40  79 N13       29.55R
$$




USA.gov is the U.S. government's official web portal to all federal, state and local government web resources and services.